Stündliche Wetter Otrada

Heute, 11 April, Sonntag

Zeit Temperatur Niederschläge Wind Luftdruck Luftfeuchtigkeit
00:00 +4°C° 0 mm 4 m/S 753 mmHg 70%
01:00 +3°C° 0 mm 4 m/S 753 mmHg 72%
02:00 +3°C° 0 mm 3 m/S 754 mmHg 73%
03:00 +2°C° 0 mm 3 m/S 754 mmHg 77%
04:00 +3°C° 0 mm 2 m/S 754 mmHg 81%
05:00 +2°C° 0 mm 2 m/S 755 mmHg 85%
06:00 +4°C° 0 mm 2 m/S 755 mmHg 80%
07:00 +5°C° 0 mm 2 m/S 756 mmHg 75%
08:00 +7°C° 0 mm 2 m/S 756 mmHg 70%
09:00 +8°C° 0 mm 2 m/S 756 mmHg 65%
10:00 +10°C° 0 mm 2 m/S 757 mmHg 60%
11:00 +13°C° 0 mm 2 m/S 757 mmHg 55%
12:00 +13°C° 0 mm 2 m/S 757 mmHg 53%
13:00 +13°C° 0 mm 3 m/S 757 mmHg 50%
14:00 +14°C° 0 mm 3 m/S 757 mmHg 48%
15:00 +15°C° 0 mm 2 m/S 757 mmHg 52%
16:00 +14°C° 0 mm 2 m/S 758 mmHg 57%
17:00 +13°C° 0 mm 1 m/S 758 mmHg 61%
18:00 +12°C° 0 mm 1 m/S 758 mmHg 65%
19:00 +12°C° 0 mm 2 m/S 759 mmHg 68%
20:00 +10°C° 0 mm 2 m/S 759 mmHg 72%
21:00 +9°C° 0 mm 2 m/S 759 mmHg 74%
22:00 +8°C° 0 mm 2 m/S 760 mmHg 75%
23:00 +7°C° 0 mm 2 m/S 760 mmHg 77%

Morgen, 12 April, Montag

Zeit Temperatur Niederschläge Wind Luftdruck Luftfeuchtigkeit
00:00 +7°C° 0 mm 2 m/S 760 mmHg 78%
01:00 +6°C° 0 mm 2 m/S 760 mmHg 78%
02:00 +6°C° 0 mm 2 m/S 761 mmHg 79%
03:00 +6°C° 0 mm 2 m/S 761 mmHg 80%
04:00 +5°C° 0 mm 2 m/S 761 mmHg 80%
05:00 +5°C° 0 mm 2 m/S 761 mmHg 81%
06:00 +7°C° 0 mm 2 m/S 761 mmHg 73%
07:00 +8°C° 0 mm 3 m/S 761 mmHg 66%
08:00 +10°C° 0 mm 3 m/S 761 mmHg 59%
09:00 +11°C° 0 mm 4 m/S 761 mmHg 54%
10:00 +13°C° 0 mm 4 m/S 760 mmHg 49%
11:00 +14°C° 0 mm 5 m/S 760 mmHg 44%
12:00 +14°C° 0 mm 5 m/S 760 mmHg 43%
13:00 +15°C° 0 mm 5 m/S 759 mmHg 42%
14:00 +15°C° 0 mm 5 m/S 759 mmHg 42%
15:00 +14°C° 0 mm 5 m/S 758 mmHg 45%
16:00 +13°C° 0 mm 4 m/S 758 mmHg 49%
17:00 +12°C° 0 mm 4 m/S 757 mmHg 53%
18:00 +11°C° 0 mm 4 m/S 757 mmHg 58%
19:00 +10°C° 0 mm 4 m/S 757 mmHg 63%
20:00 +10°C° 0 mm 3 m/S 757 mmHg 68%
21:00 +9°C° 0 mm 3 m/S 757 mmHg 73%
22:00 +9°C° 0 mm 3 m/S 757 mmHg 78%
23:00 +8°C° 0 mm 2 m/S 756 mmHg 83%

übermorgen, 13 April, Dienstag

Zeit Temperatur Niederschläge Wind Luftdruck Luftfeuchtigkeit
00:00 +8°C° 0 mm 2 m/S 756 mmHg 86%
01:00 +7°C° 0 mm 2 m/S 756 mmHg 89%
02:00 +7°C° 0 mm 2 m/S 756 mmHg 93%
03:00 +7°C° 0 mm 2 m/S 755 mmHg 94%
04:00 +6°C° 0 mm 2 m/S 755 mmHg 94%
05:00 +6°C° 0 mm 2 m/S 755 mmHg 95%
06:00 +8°C° 0 mm 2 m/S 755 mmHg 89%
07:00 +9°C° 0 mm 2 m/S 755 mmHg 84%
08:00 +10°C° 0 mm 2 m/S 754 mmHg 78%
09:00 +13°C° 0 mm 2 m/S 754 mmHg 72%
10:00 +15°C° 0 mm 2 m/S 754 mmHg 65%
11:00 +16°C° 0 mm 3 m/S 754 mmHg 59%
12:00 +17°C° 0 mm 3 m/S 754 mmHg 57%
13:00 +18°C° 0 mm 3 m/S 754 mmHg 55%
14:00 +19°C° 0 mm 3 m/S 754 mmHg 53%
15:00 +18°C° 0 mm 3 m/S 753 mmHg 57%
16:00 +18°C° 0 mm 2 m/S 753 mmHg 60%
17:00 +17°C° 0 mm 2 m/S 753 mmHg 63%
18:00 +16°C° 0 mm 2 m/S 753 mmHg 67%
19:00 +15°C° 0 mm 2 m/S 753 mmHg 71%
20:00 +13°C° 0 mm 2 m/S 753 mmHg 75%
21:00 +13°C° 0 mm 2 m/S 753 mmHg 75%
22:00 +12°C° 0 mm 2 m/S 753 mmHg 76%
23:00 +10°C° 0 mm 2 m/S 753 mmHg 76%

14 April, Mittwoch

Zeit Temperatur Niederschläge Wind Luftdruck Luftfeuchtigkeit
00:00 +10°C° 0 mm 2 m/S 753 mmHg 76%
01:00 +10°C° 0 mm 2 m/S 752 mmHg 77%
02:00 +10°C° 0 mm 2 m/S 752 mmHg 77%
03:00 +9°C° 0 mm 2 m/S 752 mmHg 77%
04:00 +8°C° 0 mm 2 m/S 752 mmHg 78%
05:00 +8°C° 0 mm 2 m/S 752 mmHg 79%
06:00 +9°C° 0 mm 2 m/S 752 mmHg 74%
07:00 +11°C° 0 mm 3 m/S 752 mmHg 69%
08:00 +13°C° 0 mm 3 m/S 752 mmHg 65%
09:00 +14°C° 0 mm 3 m/S 752 mmHg 60%
10:00 +16°C° 0 mm 3 m/S 751 mmHg 56%
11:00 +18°C° 0 mm 3 m/S 751 mmHg 52%
12:00 +18°C° 0 mm 3 m/S 751 mmHg 49%
13:00 +19°C° 0 mm 4 m/S 751 mmHg 47%
14:00 +20°C° 0 mm 4 m/S 750 mmHg 44%
15:00 +19°C° 0 mm 3 m/S 750 mmHg 47%
16:00 +19°C° 0 mm 2 m/S 750 mmHg 49%
17:00 +18°C° 0 mm 2 m/S 750 mmHg 51%
18:00 +16°C° 0 mm 2 m/S 750 mmHg 56%
19:00 +15°C° 0 mm 2 m/S 750 mmHg 62%
20:00 +13°C° 0 mm 2 m/S 750 mmHg 67%
21:00 +13°C° 0 mm 1 m/S 750 mmHg 69%
22:00 +12°C° 0 mm 1 m/S 750 mmHg 71%
23:00 +11°C° 0 mm 1 m/S 750 mmHg 74%

15 April, Donnerstag

Zeit Temperatur Niederschläge Wind Luftdruck Luftfeuchtigkeit
00:00 +11°C° 0 mm 1 m/S 750 mmHg 76%
01:00 +10°C° 0 mm 1 m/S 750 mmHg 79%
02:00 +9°C° 0 mm 2 m/S 750 mmHg 81%
03:00 +8°C° 0 mm 2 m/S 750 mmHg 84%
04:00 +8°C° 0 mm 2 m/S 750 mmHg 87%
05:00 +7°C° 0 mm 2 m/S 750 mmHg 90%
06:00 +8°C° 0 mm 2 m/S 750 mmHg 86%
07:00 +8°C° 0 mm 2 m/S 750 mmHg 81%
08:00 +9°C° 0 mm 3 m/S 750 mmHg 77%
09:00 +10°C° 0 mm 3 m/S 750 mmHg 72%
10:00 +11°C° 0 mm 3 m/S 750 mmHg 67%
11:00 +12°C° 0 mm 3 m/S 750 mmHg 63%
12:00 +13°C° 0 mm 3 m/S 750 mmHg 61%
13:00 +13°C° 0 mm 3 m/S 750 mmHg 60%
14:00 +13°C° 0 mm 3 m/S 750 mmHg 59%
15:00 +12°C° 0 mm 4 m/S 751 mmHg 63%
16:00 +11°C° 0 mm 4 m/S 751 mmHg 67%
17:00 +9°C° 0 mm 5 m/S 751 mmHg 71%
18:00 +8°C° 0.1 mm 5 m/S 752 mmHg 75%
19:00 +6°C° 0.1 mm 5 m/S 752 mmHg 79%
20:00 +5°C° 0.1 mm 5 m/S 753 mmHg 84%
21:00 +3°C° 0 mm 5 m/S 753 mmHg 86%
22:00 +3°C° 0 mm 5 m/S 753 mmHg 87%
23:00 +2°C° 0 mm 5 m/S 754 mmHg 89%

16 April, Freitag

Zeit Temperatur Niederschläge Wind Luftdruck Luftfeuchtigkeit
00:00 +2°C° 0 mm 6 m/S 754 mmHg 86%
01:00 +2°C° 0 mm 6 m/S 754 mmHg 83%
02:00 +2°C° 0 mm 6 m/S 755 mmHg 79%
03:00 +2°C° 0 mm 6 m/S 755 mmHg 78%
04:00 +1°C° 0 mm 6 m/S 755 mmHg 77%
05:00 +1°C° 0 mm 6 m/S 756 mmHg 75%
06:00 +2°C° 0 mm 6 m/S 756 mmHg 70%
07:00 +2°C° 0 mm 6 m/S 757 mmHg 65%
08:00 +3°C° 0 mm 7 m/S 757 mmHg 59%
09:00 +4°C° 0 mm 7 m/S 758 mmHg 53%
10:00 +5°C° 0 mm 7 m/S 758 mmHg 46%
11:00 +6°C° 0 mm 7 m/S 758 mmHg 39%
12:00 +6°C° 0 mm 7 m/S 758 mmHg 37%
13:00 +8°C° 0 mm 6 m/S 758 mmHg 35%
14:00 +8°C° 0 mm 6 m/S 759 mmHg 32%
15:00 +7°C° 0 mm 6 m/S 759 mmHg 35%
16:00 +7°C° 0 mm 6 m/S 759 mmHg 38%
17:00 +6°C° 0 mm 5 m/S 759 mmHg 41%
18:00 +5°C° 0 mm 5 m/S 759 mmHg 45%
19:00 +2°C° 0 mm 5 m/S 760 mmHg 50%
20:00 +1°C° 0 mm 4 m/S 760 mmHg 54%
21:00 +1°C° 0 mm 4 m/S 760 mmHg 57%
22:00 0°C° 0 mm 4 m/S 761 mmHg 61%
23:00 0°C° 0 mm 3 m/S 761 mmHg 65%
Mehr zeigen

Wir brauchen deine Erlaubnis

Meteoprog und unser Service Anbieter werden persönliche Daten aufbewahren, so wie Cookies, Geräte Bezeichnung oder ähnliche Technologien von deinem Gerät und Prozess, so wie Persönliche Daten Inhalte und Werbungen, genauso wie social Media und den Verkehr zu analysieren.

  • Aufbewahrung und/oder Zugang zu deiner Geräte Informationen.

    Cookies, Geräte Bezeichnung oder andere Informationen, können aufbewahrt oder Zugang zu deinem Gerät erhalten, für den Grund, der oben angegeben wird.

  • Personalisierte Werbung und Inhalte, Messungen, Einblick in das Publikum und Produkt Entwicklung.

    Werbungen und Inhalte können personalisiert werden, basierend auf ein Profil. Mehr Daten können besser personalisierte Werbungen und Inhalte hinzufügen. Werbung und Inhalte können gezeigt und gemessen werden. Einblicke über das Publikum, welche die Werbung gesehen haben und den Inhalt, können abgeleitet werden. So wie Daten können genutzt werden, um es zu verbessern oder die Benutzer Erfahrung zu verbessern das System und die Software.

Wenn du “Ich stimme zu” klickst, erlaubst du uns, die Cookies zu benutzen die Geräte Bezeichnung, den Web oder ähnliche Technologien zu benutzen. Deine Settings, können in deinem Gerät bei deinem Browser geändert werden.

Für den bestimmten Zweck, berechtigten Interessen beruhen darauf, mehr als auf den Inhalt. Du kannst mehr darüber in unseren Privaten und Cookie Politik lesen.